Showing default

DROID-001, 56965

Orbit data source: Space-Track

DROID-001, 56965 is a payload satellite owned by Turion Space (US) in SSO that was launched on Mon, 12 Jun 2023 UTC via an FALCON 9 launch vehicle from the Air Force Western Test Range (AFWTR). Payload-class satellites include a variety of spacecraft equipped with specific instruments for various scientific and technological missions. These include communications satellites like Starlink; space stations such as the ISS; scientific satellites like the Hubble; Earth observation satellites from companies like Planet Labs, Umbra, and HawkEye 360; GPS; miniature CubeSats for education and research; and military/defense satellites.

Loading next visibility...
Identifier
56965, 2023-084AK
Orbit
SSO
Country
Flag of USUS
Related business
Manufacturer
NanoAvionics
Mission
Operational Commercial Technology
Bus & Motor
CUBESAT MP42H, Unknown motor
Mass
32 kg wet, 32 kg dry
Launch date (UTC)
2023-06-12 (2 years ago)
Launch vehicle
FALCON 9
Launch site
Air Force Western Test Range (AFWTR)
Object type
Payload
Rocket body
Debris
Shape & HBR
Box + 2 Pan, 0.5 m
Radar Cross Section
0.257 m², Medium (>0.1 m² and < 1m²)

Expand to show TLE details & history
Last TLE update: 11 hours ago

TLE from 11 hours ago
0 DROID-001
1 56965U 23084AK  25340.89629477  .00124186  00000-0  10459-2 0  9997
2 56965  97.5836 125.0652 0004883 232.7611 127.3205 15.69437241138988
Epoch: 2025-12-06T21:30Z
TLE epoch observation values (Epoch: 2025-12-06T21:30:39.868Z)
Latitude
-0.00002°
Longitude
86.48163°
Altitude
365.656 km
Speed
7.689 km/s
True Right ascension
08h 20m 15s
True Declination
0° 00' 00"
Sunlit
Object was in full shadow at epoch
Visualization orbit readout
Latitude
Unknown
Longitude
Unknown
Altitude
Unknown
Speed
Unknown
Apparent Right ascension
Unknown
Apparent Declination
Unknown
Sunlit
N/A
Visualization observer readout
Local Sidereal Time
06:23:16
Azimuth
Unknown
Elevation
Unknown
Doppler factor
Unknown
Orbital elements
Apogee altitude
360.704 km
Perigee altitude
354.127 km
Semi-major axis
6,735.553 km
Eccentricity
0.00049
Inclination
97.5836°
RAAN
125.0652°
Arg. of periapsis
232.7611°
True anomaly
127.36498°
Mean anomaly
127.3205°
Eccentric anomaly
127.34274°
Mean motion
3.9263 °/min
Orbital period
91.69 mins
BSTAR
0.0010459
Loading maneuver chart data...
Computing Atmospheric mass density...
Loading historical data...
Loading historical data...
Loading historical data...
Loading historical data...
Loading historical data...
Loading historical data...
Loading historical data...

Documentation

Showing up to 5 results
|